Home   Weather   A Coruña   Past weeks

Flag for Spain Past Weather in A Coruña, Spain — Yesterday and Last 2 Weeks

65 °F


Feels Like: 65 °F
Forecast: 57 / 69 °F
Wind: 7 mph from Southeast

Location: La Coruna

Current Time: Oct 25, 2016 at 2:00:57 PM

Latest Report: Oct 25, 2016 at 1:00 PM

Visibility: 13 mi

Pressure: 30.02 "Hg

Humidity: 67%

Dew Point: 53 °F

Location of A CoruñaLocation

Past Weather in A Coruña — Graph


A Coruña Temperature Yesterday

Maximum temperature yesterday: 70 °F (at 4:00 PM)
Minimum temperature yesterday: 54 °F (at 6:00 AM)
Average temperature yesterday: 59 °F

High & Low Weather Summary for the Past Weeks

High70 °F (Oct 24, 4:00 PM)98% (Oct 13, 8:00 AM)30.34 "Hg (Oct 13, 8:00 AM)
Low53 °F (Oct 21, 8:00 AM)51% (Oct 24, 3:00 PM)29.35 "Hg (Oct 23, 4:00 AM)
Average60 °F81%29.89 "Hg
* Reported Oct 10 12:00 PM — Oct 25 12:00 PM, A Coruña, Weather by CustomWeather, © 2016

Note: Actual official high and low records may vary slightly from our data, if they occured in-between our weather recording intervals... More about our weather records


A Coruña Weather History for the Previous 24 Hours

Scroll right to see more
Time TempWeatherWind HumidityBarometerVisibility
12:00 PM
Tue, Oct 25
64 °FMild.6 mph66%30.01 "Hg12 mi
11:00 AM63 °FPartly sunny.6 mph64%29.99 "Hg16 mi
10:00 AM59 °FCool.7 mph71%29.96 "Hg12 mi
9:00 AM58 °FCool.3 mph72%29.96 "Hg12 mi
8:00 AM58 °FCool.6 mph71%29.94 "Hg12 mi
7:00 AM55 °FCool.5 mph80%29.93 "Hg12 mi
6:00 AM57 °FCool.3 mph77%29.93 "Hg12 mi
5:00 AM56 °FPassing clouds.5 mph77%29.92 "Hg11 mi
4:00 AM57 °FCool.2 mph77%29.93 "Hg12 mi
3:00 AM57 °FCool.6 mph77%29.93 "Hg11 mi
2:00 AM58 °FPassing clouds.5 mph74%29.94 "Hg11 mi
12:00 AM58 °FCool.6 mph78%29.93 "Hg11 mi
11:00 PM
Mon, Oct 24
59 °FPassing clouds.6 mph78%29.91 "Hg11 mi
10:00 PM59 °FCool.2 mph78%29.89 "Hg11 mi
9:00 PM60 °FCool.1 mph79%29.86 "Hg7 mi
8:00 PM60 °FCool.2 mph76%29.85 "Hg7 mi
7:00 PM61 °FCool.5 mph72%29.84 "Hg7 mi
6:00 PM61 °FCool.6 mph75%29.82 "Hg7 mi
5:00 PM63 °FMild.7 mph72%29.81 "Hg7 mi
4:00 PM70 °FMild.7 mph51%29.80 "Hg11 mi
3:00 PM70 °FMild.7 mph51%29.79 "Hg12 mi
2:00 PM68 °FScattered clouds.7 mph57%29.78 "Hg12 mi
Weather by CustomWeather, © 2016

See weather overviewHow to use our weather pages